Weather in Timoshino

Russia / Kostroma Oblast     57°50′02″N   44°25′03″E
temp.,
°C
wind,
m/s
gust,
m/s
humid.,
%
clouds,
%
prec.,
mm/h
press.,
hPa
HPBL,
m
18 january, tue
tue1800:00−6s41193100 0.3 990535
03:00−6s3995100 0.5 991397
06:00−5s2896100 0.4 993296
09:00−6s2697100 0.7 996164
12:00−4w2494100 0.1 998261
15:00−4nw2495100 0.2 1001301
18:00−9nw389648 0.1 1005218
21:00−13wnw289768 0.1 1007160
19 january, wed
wed1900:00−14wnw289882 0.0 1010160
03:00−15wnw289885 0.0 1011156
06:00−16w269978 0.0 1013108
09:00−17w279987 0.0 1015121
12:00−12w249168 0.0 1014176
15:00−12sw269580 0.0 1015187
18:00−14sw3109682 0.0 1015202
21:00−12ssw31191100 0.0 1014284
20 january, thu
thu2000:00
03:00−10ssw41481100 0.0 1012433
06:00−10ssw5158796 0.0 1012422
09:00
12:00−7ssw51688100 0.0 1012548
15:00−7ssw5168473 0.0 1012612
18:00−9ssw5158173 0.0 1013496
21:00−10s51585100 0.0 1013468
21 january, fri
fri2100:00−11s51591100 0.0 1014471
03:00−11s51591100 0.0 1015492
06:00−11s51591100 0.0 1015473
09:00−12sse4149281 0.0 1016441
12:00−9sse5148974 0.0 1017480
15:00−8sse5139088 0.0 1017527
18:00−10se5149395 0.0 1018448
21:00−10se5159297 0.0 1018484
22 january, sat
sat2200:00−8se51589100 0.0 1018534
03:00−8se51592100 0.1 1017642
06:00−7se51392100 0.3 1018671
09:00−7se51292100 0.5 1019527
12:00−6se41091100 0.1 1021487
15:00−6se3893100 0.1 1022418
18:00−7ese3895100 0.2 1024357
21:00−7ese3796100 0.8 1025377